Weather History for KMGW - January, 2012

Change the Weather History Date:

Tuesday, January 17, 2012

  Actual Average Record
Temperature  
Mean Temperature 48 °F 31 °F  
Max Temperature 57 °F 39 °F 66 °F (1990)
Min Temperature 39 °F 24 °F -16 °F (1982)
Degree Days  
Heating Degree Days 17 34  
Month to date heating degree days 518 575  
Since 1 July heating degree days 2150 2559  
Cooling Degree Days 0 0  
Month to date cooling degree days 0 0  
Year to date cooling degree days 0 0  
Moisture  
Dew Point 43 °F    
Average Humidity 78    
Maximum Humidity 93    
Minimum Humidity 62    
Precipitation  
Precipitation 0.51 in 0.09 in 0.64 in (1952)
Month to date precipitation 1.42 1.53  
Year to date precipitation 1.42 1.53  
Sea Level Pressure  
Sea Level Pressure 29.81 in    
Wind  
Wind Speed 9 mph (SW)    
Max Wind Speed 23 mph    
Max Gust Speed 33 mph    
Visibility 8 miles    
Events Rain    
T = Trace of Precipitation, MM = Missing Value Source: NWS Daily Summary

Daily Weather History Graph

Daily Weather History Graph

Search for Another Location

Airport or City:

Trip Planner

Search our weather history database for the weather conditions in past years. The results will help you decide how hot, cold, wet, or windy it might be!

Date:

Astronomy

Jan. 17, 2012 Rise Set
Actual Time 7:38 AM EST 5:21 PM EST
Civil Twilight 7:08 AM EST 5:51 PM EST
Nautical Twilight 6:35 AM EST 6:24 PM EST
Astronomical Twilight 6:03 AM EST 6:56 PM EST
Moon 1:55 AM EST (1/17) 12:13 PM EST (1/17)
Length of Visible Light 10h 42m
Length of Day
9h 43m
Waning Crescent, 35% of the Moon is Illuminated
Jan 17
Waning Crescent
Jan 23
New
Jan 30
First Quarter
Feb 7
Full
Feb 14
Last Quarter

Hourly Weather History & Observations

Time (EST) Temp. Windchill Dew Point Humidity Pressure Visibility Wind Dir Wind Speed Gust Speed Precip Events Conditions
12:53 AM 46.9 °F - 37.9 °F 71% 30.00 in 10.0 mi Variable 4.6 mph - 0.01 in Rain Light Rain
1:53 AM 46.9 °F - 37.9 °F 71% 29.98 in 10.0 mi SSW 4.6 mph - 0.00 in   Overcast
2:53 AM 48.0 °F - 37.9 °F 68% 29.98 in 10.0 mi SSW 8.1 mph - 0.00 in   Overcast
3:53 AM 46.9 °F - 41.0 °F 80% 29.96 in 9.0 mi South 5.8 mph - 0.01 in   Overcast
4:53 AM 46.9 °F - 41.0 °F 80% 29.93 in 6.0 mi South 3.5 mph - 0.02 in Rain Light Rain
5:53 AM 48.0 °F - 42.1 °F 80% 29.91 in 10.0 mi South 5.8 mph - 0.02 in   Overcast
6:53 AM 46.9 °F - 43.0 °F 86% 29.90 in 10.0 mi Variable 5.8 mph - 0.02 in Rain Light Rain
7:45 AM 48.2 °F - 44.6 °F 87% 29.89 in 4.0 mi SSW 10.4 mph 18.4 mph 0.11 in Rain Rain
7:53 AM 48.0 °F - 45.0 °F 89% 29.90 in 4.0 mi SSW 11.5 mph 18.4 mph 0.14 in Rain Rain
8:00 AM 48.2 °F - 44.6 °F 87% 29.88 in 4.0 mi SSW 10.4 mph 18.4 mph 0.02 in Rain Rain
8:20 AM 48.2 °F - 44.6 °F 87% 29.86 in 4.0 mi South 8.1 mph - 0.07 in Rain Rain
8:41 AM 48.2 °F - 46.4 °F 93% 29.85 in 2.5 mi South 4.6 mph - 0.12 in Rain Light Rain
8:48 AM 48.2 °F - 46.4 °F 93% 29.86 in 5.0 mi SSW 3.5 mph - 0.12 in Rain Light Rain
8:53 AM 48.0 °F - 46.0 °F 93% 29.85 in 5.0 mi SSE 3.5 mph - 0.13 in Rain Light Rain
9:53 AM 50.0 °F - 45.0 °F 83% 29.81 in 10.0 mi South 8.1 mph - 0.00 in   Overcast
10:53 AM 52.0 °F - 44.1 °F 74% 29.78 in 10.0 mi SSW 10.4 mph 20.7 mph 0.00 in   Overcast
11:53 AM 54.0 °F - 45.0 °F 72% 29.75 in 10.0 mi SW 10.4 mph 20.7 mph 0.01 in   Overcast
12:53 PM 55.9 °F - 46.0 °F 69% 29.70 in 10.0 mi Variable 4.6 mph - N/A   Overcast
1:53 PM 55.9 °F - 46.0 °F 69% 29.68 in 10.0 mi Variable 3.5 mph - N/A   Overcast
2:44 PM 51.8 °F - 46.4 °F 82% 29.69 in 1.8 mi NW 13.8 mph 20.7 mph 0.07 in Rain Rain
2:53 PM 51.1 °F - 46.9 °F 86% 29.70 in 1.8 mi NW 13.8 mph 20.7 mph 0.10 in Rain Rain
3:04 PM 51.8 °F - 48.2 °F 88% 29.68 in 3.0 mi WNW 10.4 mph 18.4 mph 0.03 in Rain Rain
3:18 PM 51.8 °F - 48.2 °F 88% 29.70 in 5.0 mi WNW 10.4 mph 18.4 mph 0.04 in Rain Light Rain
3:53 PM 52.0 °F - 48.0 °F 86% 29.66 in 10.0 mi WSW 10.4 mph 18.4 mph 0.05 in   Overcast
4:53 PM 54.0 °F - 46.9 °F 77% 29.67 in 10.0 mi SSW 9.2 mph 18.4 mph N/A   Scattered Clouds
5:09 PM 53.6 °F - 46.4 °F 77% 29.67 in 10.0 mi SW 10.4 mph - N/A   Mostly Cloudy
5:53 PM 55.0 °F - 48.0 °F 77% 29.69 in 10.0 mi SW 9.2 mph 19.6 mph N/A   Overcast
6:53 PM 53.6 °F - 46.4 °F 77% 29.69 in 10.0 mi SSW 8.1 mph 16.1 mph N/A   Mostly Cloudy
7:53 PM 54.0 °F - 45.0 °F 72% 29.71 in 10.0 mi WSW 13.8 mph 23.0 mph N/A   Overcast
8:13 PM 51.8 °F - 42.8 °F 71% 29.74 in 10.0 mi West 13.8 mph 24.2 mph N/A   Mostly Cloudy
8:53 PM 46.9 °F - 35.1 °F 63% 29.80 in 10.0 mi West 17.3 mph 27.6 mph N/A   Overcast
9:09 PM 46.4 °F 40.1 °F 35.6 °F 66% 29.80 in 10.0 mi West 15.0 mph 26.5 mph N/A   Overcast
9:53 PM 43.0 °F 35.1 °F 30.0 °F 60% 29.86 in 10.0 mi West 17.3 mph 27.6 mph N/A   Mostly Cloudy
10:53 PM 39.9 °F 34.5 °F 28.9 °F 65% 29.91 in 10.0 mi West 8.1 mph 20.7 mph N/A   Overcast
11:53 PM 39.0 °F 33.4 °F 24.1 °F 55% 29.93 in 10.0 mi West 8.1 mph - N/A   Overcast